This demonstration page uses our WeatherBlox Daily Observations layout. Learn more.

Left ArrowRight Arrow

39.01783, -85.05884

Hourly Observations for April 2, 2018

Temp ( °F °C ) Dew Point ( °F °C ) Humidity (%) Winds ( mph kmh ) Pressure ( in mb ) Visibility ( mi km ) Precip ( " mm )
12:40 am 00:40 Cloudy with Light Snow 33 0.6 32 0 96 96 N 6 9 30.15 1021 2 2 0.04 1.02
12:49 am 00:49 Cloudy with Light Snow 34 1 32 0 93 93 N 7 11 30.12 1020 2 3 0.05 1.27
12:52 am 00:52 Cloudy with Light Snow 33 0.6 32 0 96 96 N 7 11 30.08 1019 2 3 0.05 1.27
1:11 am 01:11 Cloudy with Light Snow 33 0.6 32 0 96 96 NNE 8 13 30.12 1020 3 5 0.00 0.03
1:52 am 01:52 Cloudy 34 1.1 32 0 92 92 NNE 8 13 30.07 1018 7 11 0.00 0.03
2:52 am 02:52 Cloudy with Light Snow 34 1.1 32 0 92 92 NNE 9 15 30.07 1018 7 11 0.00 0.03
3:52 am 03:52 Cloudy 34 1.1 32 0 92 92 N 9 15 30.06 1018 7 11 0.00 0.03
4:52 am 04:52 Cloudy with Mist and Fog 34 1.1 32 0 92 92 N 9 15 30.07 1018 6 10 0.00 0.00
5:52 am 05:52 Cloudy with Mist and Fog 34 1.1 32 0 92 92 NNE 10 17 30.09 1019 6 10 0.00 0.00
6:52 am 06:52 Cloudy with Mist and Fog 33 0.6 31 -0.6 92 92 NNE 9 15 30.09 1019 5 8 0.00 0.00
7:52 am 07:52 Cloudy with Mist and Fog 33 0.6 32 0 96 96 N 12 19 30.12 1020 3 5 0.00 0.00
8:52 am 08:52 Cloudy with Mist and Fog 33 0.6 31 -0.6 92 92 NNE 8 13 30.12 1020 4 6 0.00 0.00
9:22 am 09:22 Cloudy with Mist and Fog 33 0.6 30 -1.1 89 89 NNE 10 17 30.18 1022 6 10 0.00 0.00
9:52 am 09:52 Cloudy with Mist and Fog 33 0.6 31 -0.6 92 92 NE 10 17 30.14 1021 6 10 0.00 0.00
10:52 am 10:52 Cloudy 34 1.1 31 -0.6 89 89 E 10 17 30.14 1021 7 11 0.00 0.00
11:52 am 11:52 Cloudy 35 1.7 32 0 89 89 ENE 6 9 30.14 1021 8 13 0.00 0.00
12:33 pm 12:33 Cloudy 35 1.7 32 0 89 89 E 7 11 30.15 1021 10 16 0.00 0.00
12:52 pm 12:52 Cloudy 36 2.2 31 -0.6 82 82 VRB 7 11 30.13 1020 10 16 0.00 0.00
1:20 pm 13:20 Cloudy 38 3.3 31 -0.6 76 76 ESE 7 11 30.12 1020 10 16 0.00 0.00
1:52 pm 13:52 Cloudy 39 3.9 32 0 76 76 ESE 8 13 30.10 1019 10 16 0.00 0.00
2:52 pm 14:52 Cloudy 41 5 32 0 70 70 E 9 15 30.07 1018 10 16 0.00 0.00
3:52 pm 15:52 Cloudy 42 5.6 32 0 68 68 SSE 6 9 30.05 1018 10 16 0.00 0.00
4:52 pm 16:52 Cloudy 44 6.7 29 -1.7 55 55 SE 6 9 30.03 1017 10 16 0.00 0.00
5:52 pm 17:52 Cloudy 44 6.7 30 -1.1 58 58 ESE 7 11 30.02 1017 10 16 0.00 0.00
6:52 pm 18:52 Cloudy 45 7.2 31 -0.6 58 58 ESE 8 13 30.00 1016 10 16 0.00 0.00
7:52 pm 19:52 Cloudy 44 6.7 31 -0.6 60 60 ESE 12 19 29.97 1015 10 16 0.00 0.00
8:52 pm 20:52 Cloudy 44 6.7 32 0 63 63 ESE 8 13 29.96 1014 10 16 0.00 0.00
9:52 pm 21:52 Cloudy 45 7.2 32 0 61 61 SE 10 17 29.95 1014 10 16 0.00 0.00
10:52 pm 22:52 Cloudy 45 7.2 32 0 61 61 SE 8 13 29.94 1014 10 16 0.00 0.00
11:52 pm 23:52 Cloudy with Light Rain 44 6.7 41 5 89 89 SSE 18 30 29.87 1012 7 11 0.02 0.51

Powered by AerisWeather